| time (UTC) | temp F | wind direction | speed knots | gust knots | rain 1hr in | rain 24hr in | rain mn in | humidity % | barometer mb |
| 20260504210155 | 53 | 264 | 0.0 | 0.0 | 0.00 | 0.07 | 0.07 | 99 | 1021.6 |
| 20260504204654 | 53 | 259 | 0.0 | 0.0 | 0.00 | 0.07 | 0.07 | 99 | 1021.6 |
| 20260504203154 | 53 | 270 | 0.0 | 0.0 | 0.00 | 0.07 | 0.07 | 99 | 1021.6 |
| 20260504201654 | 53 | 270 | 0.0 | 0.0 | 0.00 | 0.07 | 0.07 | 99 | 1021.4 |
| 20260504200151 | 54 | 275 | 0.0 | 0.0 | 0.00 | 0.07 | 0.07 | 99 | 1021.2 |
| 20260504194646 | 53 | 268 | 0.0 | 0.0 | 0.00 | 0.07 | 0.07 | 99 | 1021.3 |
| 20260504193142 | 53 | 268 | 0.0 | 0.0 | 0.00 | 0.07 | 0.07 | 99 | 1021.1 |
| 20260504191642 | 53 | 250 | 0.0 | 0.0 | 0.00 | 0.06 | 0.06 | 99 | 1020.9 |
| 20260504190137 | 53 | 264 | 0.0 | 0.0 | 0.00 | 0.06 | 0.06 | 98 | 1020.8 |
| 20260504184638 | 53 | 264 | 0.0 | 0.0 | 0.00 | 0.06 | 0.06 | 98 | 1020.8 |
| 20260504183133 | 54 | 287 | 0.0 | 0.0 | 0.00 | 0.06 | 0.06 | 98 | 1020.7 |
| 20260504181631 | 53 | 291 | 0.0 | 0.0 | 0.07 | 0.05 | 0.05 | 98 | 1020.5 |
| 20260504180126 | 53 | 274 | 0.0 | 0.0 | 0.00 | 0.04 | 0.04 | 98 | 1020.5 |
| 20260504174624 | 54 | 266 | 0.0 | 0.0 | 0.00 | 0.04 | 0.04 | 98 | 1020.6 |
| 20260504173120 | 53 | 269 | 0.0 | 0.0 | 0.07 | 0.04 | 0.04 | 98 | 1020.6 |
| 20260504171615 | 53 | 285 | 0.0 | 0.0 | 0.00 | 0.03 | 0.03 | 98 | 1020.7 |
| 20260504170112 | 53 | 278 | 0.0 | 0.0 | 0.00 | 0.03 | 0.03 | 98 | 1020.9 |
| 20260504081435 | 60 | 292 | 0.9 | 0.9 | 0.00 | 0.39 | 0.39 | 74 | 1017.0 |
| 20260504045855 | 67 | 308 | 0.9 | 1.7 | 0.00 | 0.39 | 0.39 | 62 | 1015.1 |
| 20260504044350 | 66 | 292 | 0.9 | 0.9 | 0.00 | 0.39 | 0.39 | 63 | 1014.9 |
| 20260504042847 | 66 | 271 | 3.5 | 5.2 | 0.00 | 0.39 | 0.39 | 62 | 1014.7 |
| 20260504041342 | 64 | 334 | 0.0 | 0.9 | 0.00 | 0.39 | 0.39 | 66 | 1014.7 |
| 20260504035837 | 65 | 351 | 1.7 | 2.6 | 0.00 | 0.39 | 0.39 | 65 | 1014.8 |
| 20260504034336 | 65 | 301 | 2.6 | 3.5 | 0.00 | 0.39 | 0.39 | 66 | 1014.6 |
| 20260504032832 | 64 | 291 | 0.0 | 0.9 | 0.00 | 0.39 | 0.39 | 68 | 1014.7 |
| 20260504031330 | 64 | 281 | 2.6 | 2.6 | 0.00 | 0.39 | 0.39 | 69 | 1014.8 |
| 20260504025825 | 64 | 277 | 0.0 | 0.9 | 0.00 | 0.39 | 0.39 | 71 | 1014.9 |
| 20260504024321 | 65 | 286 | 1.7 | 2.6 | 0.00 | 0.39 | 0.39 | 68 | 1014.8 |
| 20260504022816 | 63 | 284 | 1.7 | 2.6 | 0.00 | 0.39 | 0.39 | 73 | 1015.0 |
| 20260504021314 | 61 | 276 | 0.9 | 0.9 | 0.00 | 0.39 | 0.39 | 81 | 1015.1 |
| 20260504015809 | 62 | 301 | 2.6 | 3.5 | 0.00 | 0.39 | 0.39 | 75 | 1015.0 |
| 20260504014303 | 62 | 281 | 3.5 | 5.2 | 0.00 | 0.39 | 0.39 | 73 | 1014.9 |
| 20260504012801 | 62 | 310 | 1.7 | 3.5 | 0.00 | 0.39 | 0.39 | 76 | 1014.7 |
| 20260504011258 | 62 | 317 | 1.7 | 2.6 | 0.00 | 0.39 | 0.39 | 73 | 1014.6 |
| 20260504005758 | 62 | 260 | 2.6 | 3.5 | 0.00 | 0.39 | 0.39 | 77 | 1014.5 |
| 20260504004256 | 60 | 280 | 1.7 | 1.7 | 0.00 | 0.39 | 0.39 | 85 | 1014.4 |
| 20260504002751 | 59 | 283 | 0.9 | 0.9 | 0.00 | 0.39 | 0.39 | 87 | 1014.2 |
| 20260504001248 | 60 | 293 | 2.6 | 3.5 | 0.00 | 0.39 | 0.39 | 86 | 1014.2 |
| 20260503235746 | 59 | 336 | 3.5 | 5.2 | 0.00 | 0.39 | 0.39 | 89 | 1013.9 |
| 20260503234245 | 59 | 3 | 4.3 | 6.1 | 0.05 | 0.39 | 0.39 | 89 | 1013.7 |
| 20260503232740 | 59 | 324 | 2.6 | 3.5 | 0.00 | 0.38 | 0.38 | 89 | 1013.6 |
| 20260503231238 | 58 | 322 | 1.7 | 3.5 | 0.00 | 0.38 | 0.38 | 92 | 1013.3 |
| 20260503225735 | 57 | 335 | 0.9 | 1.7 | 0.00 | 0.38 | 0.38 | 93 | 1013.2 |
| 20260503224236 | 57 | 303 | 1.7 | 1.7 | 0.00 | 0.38 | 0.38 | 93 | 1013.1 |
| 20260503222732 | 57 | 300 | 4.3 | 5.2 | 0.07 | 0.38 | 0.38 | 93 | 1012.6 |
| 20260503221231 | 57 | 284 | 1.7 | 2.6 | 0.00 | 0.37 | 0.37 | 93 | 1012.6 |
| 20260503215727 | 57 | 308 | 1.7 | 2.6 | 0.00 | 0.37 | 0.37 | 93 | 1012.4 |
| 20260503214224 | 57 | 311 | 0.9 | 0.9 | 0.00 | 0.37 | 0.37 | 93 | 1012.2 |
| 20260503212722 | 57 | 318 | 2.6 | 3.5 | 0.00 | 0.37 | 0.37 | 93 | 1012.3 |
| 20260503211219 | 57 | 300 | 1.7 | 2.6 | 0.07 | 0.36 | 0.36 | 92 | 1011.9 |